ONEWEB-0182 (48228 NORAD) Tracking and Keplerian Element Data

This shows tracking and keplerian element data for the satellite.

Feedback or suggestion? Click here.




ElementValue
Catalog48228
NameONEWEB-0182
Epoch Orbit194
Epoch Day173.83334491
Epoch Year2021
RAAN293.995
Inclination87.6859
Eccentricity0.0009985
Argument of Perigee76.8257
Mean Anonmoly180.5416
Mean Motion14.64402851
Decay Rate-0.00908883
L11 48228U 21031U 21173.83334491 -.00908883 00000-0 -18466+0 0 9992
L22 48228 87.6859 293.9950 0009985 76.8257 180.5416 14.64402851 1946

Live tracking and technical data element details for ONEWEB-0182 (NORAD 48228). ONEWEB-0182 can be tracked NOW for your location showing map with azimuth and elevation plus other details from your city location.

Track the satellite on the map from your city or location and see movement details for azimuth, elevation, latitude, longitude, range, height, and movement on the map or in text.







IsCatalogInMostPopularTable: catalog: 48228, numindb: 22
Update: records affected: 1



GetName: 48228 ONEWEB-0182

Hit Count: updated at: Thu, 24 Jun 2021 04:07:08 GMT